TimeMST,TemperatureF,Dew PointF,Humidity,Sea Level PressureIn,VisibilityMPH,Wind Direction,Wind SpeedMPH,Gust SpeedMPH,PrecipitationIn,Events,Conditions,WindDirDegrees,DateUTC
12:53 AM,48.0,15.1,27,29.73,10.0,SW,4.6,-,N/A,,Clear,230,2013-03-08 07:53:00
1:53 AM,50.0,16.0,26,29.72,10.0,South,4.6,-,N/A,,Clear,190,2013-03-08 08:53:00
2:53 AM,46.0,16.0,30,29.73,10.0,SSW,9.2,-,N/A,,Clear,210,2013-03-08 09:53:00
3:53 AM,51.1,17.1,26,29.71,10.0,South,9.2,-,N/A,,Clear,190,2013-03-08 10:53:00
4:53 AM,46.0,18.0,33,29.73,10.0,WSW,3.5,-,N/A,,Clear,240,2013-03-08 11:53:00
5:53 AM,46.0,18.0,33,29.74,10.0,ESE,3.5,-,N/A,,Clear,120,2013-03-08 12:53:00
6:53 AM,48.0,17.1,29,29.75,10.0,ESE,3.5,-,N/A,,Mostly Cloudy,120,2013-03-08 13:53:00
7:53 AM,48.2,19.4,32,29.81,10.0,Calm,Calm,-,N/A,,Overcast,0,2013-03-08 14:53:00
8:53 AM,50.0,19.0,29,29.77,10.0,SE,4.6,-,N/A,,Overcast,140,2013-03-08 15:53:00
9:53 AM,51.1,26.1,38,29.76,10.0,South,18.4,21.9,N/A,,Overcast,180,2013-03-08 16:53:00
10:53 AM,50.0,28.0,43,29.76,10.0,WSW,4.6,18.4,N/A,,Overcast,240,2013-03-08 17:53:00
11:53 AM,50.0,32.0,50,29.75,10.0,South,12.7,18.4,N/A,,Overcast,170,2013-03-08 18:53:00
12:53 PM,46.9,34.0,61,29.73,10.0,SSE,17.3,-,N/A,,Overcast,160,2013-03-08 19:53:00
1:53 PM,46.9,34.0,61,29.69,10.0,SSE,13.8,24.2,N/A,,Overcast,150,2013-03-08 20:53:00
2:53 PM,48.0,35.1,61,29.68,10.0,ESE,9.2,-,N/A,,Mostly Cloudy,120,2013-03-08 21:53:00
3:53 PM,48.9,34.0,56,29.63,10.0,SE,6.9,-,N/A,,Clear,140,2013-03-08 22:53:00
4:53 PM,48.9,36.0,61,29.61,10.0,ENE,12.7,-,N/A,,Mostly Cloudy,60,2013-03-08 23:53:00
5:53 PM,46.0,37.0,71,29.61,10.0,ENE,10.4,-,N/A,,Overcast,70,2013-03-09 00:53:00
6:53 PM,44.1,37.0,76,29.62,10.0,ENE,12.7,-,N/A,,Mostly Cloudy,60,2013-03-09 01:53:00
7:53 PM,44.1,35.1,71,29.62,10.0,East,12.7,-,N/A,,Overcast,80,2013-03-09 02:53:00
8:53 PM,42.1,34.0,73,29.62,10.0,ENE,10.4,-,N/A,,Mostly Cloudy,70,2013-03-09 03:53:00
9:53 PM,41.0,34.0,76,29.62,10.0,East,5.8,-,N/A,,Scattered Clouds,100,2013-03-09 04:53:00
10:53 PM,41.0,35.1,79,29.61,10.0,Calm,Calm,-,N/A,,Overcast,0,2013-03-09 05:53:00
11:53 PM,41.0,34.0,76,29.60,10.0,ENE,4.6,-,N/A,,Overcast,70,2013-03-09 06:53:00